Wind_Speed
14 14 14 13 14 13 14 14 14 14 14 14 16 17 18 18 17 17 17 17 17 17 18 17 16 16 17 17 17 18 18 16 17 17 17 18 18 18 18 18 18 18 18 17
15 16 14 15 15 15 15 14 14 14 13 14 16 18 18 18 17 18 16 15 16 17 17 17 17 17 17 18 18 18 18 17 18 18 19 19 19 19 19 18 19 18 17 17
16 14 15 16 15 15 15 15 15 15 14 15 16 18 18 17 19 17 16 16 17 17 17 18 18 18 18 19 19 19 18 18 19 19 19 19 20 19 19 19 18 18 17 18
15 14 15 16 16 16 17 15 16 15 16 17 16 18 19 19 20 18 18 18 18 18 19 19 18 18 19 19 19 19 18 18 19 19 19 19 19 19 19 19 18 18 18 18
14 14 16 17 16 16 15 14 16 16 17 18 17 17 18 20 19 18 18 18 18 18 19 19 20 19 19 19 19 19 18 18 18 18 18 18 18 18 19 19 19 18 18 18
14 14 16 17 15 15 14 14 15 15 17 20 18 18 18 19 18 18 19 19 17 19 20 20 21 20 20 20 20 19 19 18 18 18 18 18 18 18 19 19 19 19 19 18
14 14 15 17 15 15 16 15 15 17 18 19 17 17 19 19 19 19 19 19 18 19 20 20 20 20 20 20 19 19 19 18 18 18 18 19 19 18 18 19 19 19 18 18
15 15 15 17 17 17 17 17 17 19 18 18 17 18 20 19 19 19 18 18 18 19 19 19 19 19 19 20 20 19 19 19 18 18 18 18 18 18 18 18 19 19 18 18
16 17 16 18 18 19 20 19 18 20 19 19 17 18 19 18 20 20 18 17 18 18 18 18 18 18 19 19 19 19 19 19 18 18 18 18 18 18 18 18 18 18 18 18
17 19 18 17 18 18 20 20 19 20 21 22 19 17 18 17 19 18 19 19 18 18 19 18 18 18 18 18 19 18 18 18 18 18 18 18 18 18 18 18 18 17 16 16
19 20 19 20 19 19 20 20 20 19 19 21 18 17 18 18 19 19 21 19 19 19 19 19 18 18 18 18 18 18 17 17 17 17 17 17 17 18 18 19 18 17 17 17
21 21 20 20 18 17 21 21 20 20 19 21 21 20 19 20 21 22 21 20 20 20 19 19 18 19 19 19 18 18 17 17 17 17 17 17 17 18 18 19 19 18 17 17
21 21 21 20 19 18 19 20 21 21 21 22 21 21 20 21 21 21 21 20 20 20 19 19 19 19 19 19 18 17 17 17 16 16 17 17 17 18 19 19 19 18 18 17
22 22 22 23 20 20 21 21 22 22 23 23 22 22 22 21 20 20 21 20 20 20 20 20 19 19 18 18 17 17 17 17 16 17 17 17 17 18 18 19 19 19 18 17
22 22 22 22 21 21 22 22 23 24 23 23 23 23 23 22 23 21 20 20 21 20 20 19 19 19 18 17 16 16 17 17 17 17 17 17 17 18 18 19 19 18 18 18
25 24 24 23 21 22 22 21 23 23 24 25 26 25 23 22 23 23 22 21 20 19 19 19 18 18 18 18 17 16 16 17 18 18 18 18 18 19 19 19 19 18 18 18
27 27 26 25 24 26 26 24 24 26 26 25 26 23 22 23 24 24 23 21 21 20 20 20 19 19 18 18 18 18 17 17 18 18 18 18 19 19 20 20 19 19 19 19
27 27 26 25 26 27 23 23 25 25 26 26 25 24 24 23 24 23 22 21 21 21 20 18 19 19 19 19 19 18 19 19 19 18 18 18 19 19 19 19 19 19 20 21
28 27 27 27 26 24 22 22 23 26 26 26 24 23 22 23 23 23 23 22 22 20 20 21 20 20 20 20 19 19 19 19 20 20 19 19 19 19 19 19 20 20 20 20
27 26 27 27 26 25 24 23 24 26 27 25 24 24 23 24 24 22 23 22 22 21 22 22 21 21 20 20 19 19 19 20 20 21 21 21 20 20 20 20 20 20 20 20
26 26 27 26 26 27 26 24 24 26 25 25 25 24 23 24 24 23 23 22 22 22 21 20 20 20 20 20 20 20 20 21 21 21 22 23 22 21 21 21 21 21 21 21
25 25 26 27 27 27 25 26 27 27 26 25 26 26 26 25 25 24 22 21 22 22 22 21 20 20 20 20 21 21 21 21 21 21 22 22 21 21 21 21 21 21 22 21
25 26 26 26 27 25 26 28 28 28 28 27 27 25 25 25 25 24 22 22 22 22 22 22 21 22 22 22 21 21 21 21 21 21 21 21 21 21 21 21 21 21 21 21
25 25 26 26 26 25 26 27 28 28 27 28 27 26 26 25 25 25 24 23 23 22 23 23 22 22 22 22 22 21 22 23 23 23 23 22 21 21 21 21 21 22 21 21
25 26 26 27 27 25 25 26 27 28 27 26 26 26 26 25 25 25 26 25 24 23 23 23 22 22 22 22 22 22 22 23 23 23 23 23 22 22 22 21 22 22 21 21
24 26 26 25 26 27 27 26 27 26 26 25 25 27 27 26 25 26 25 25 24 24 24 23 23 23 22 22 22 22 22 22 22 22 22 22 22 22 22 23 23 22 21 21
Wind_Direction
250 254 259 260 260 258 259 256 256 258 264 263 266 270 271 275 275 275 274 275 278 283 284 285 285 287 288 290 292 295 295 290 288 286 286 287 290 292 294 293 291 290 291 292
254 258 262 261 259 252 252 257 255 249 254 263 268 271 275 276 273 275 277 279 279 281 284 285 284 287 287 289 292 294 294 289 288 289 287 286 290 292 292 292 292 291 292 293
254 252 252 255 253 250 250 253 255 252 254 255 259 265 271 275 278 283 281 279 281 283 286 285 284 286 287 288 289 290 292 291 290 289 288 289 290 291 292 293 292 291 292 291
256 254 254 252 248 250 252 252 254 253 253 252 254 261 268 274 277 280 280 280 282 284 286 286 286 284 285 286 286 288 291 291 291 291 291 289 288 289 291 293 293 292 291 291
249 250 249 249 247 248 252 249 252 255 255 256 254 258 268 275 279 283 284 282 282 283 284 284 285 286 284 284 285 286 287 288 290 292 292 290 288 288 289 292 292 292 291 291
254 249 251 252 246 245 247 250 252 254 255 257 255 256 264 268 275 280 284 285 284 283 283 283 283 283 283 282 283 284 286 287 289 291 291 291 290 290 290 292 291 291 291 291
257 251 249 249 247 247 250 251 251 251 249 254 258 262 263 269 274 276 280 284 284 283 284 284 284 284 284 283 282 283 286 287 289 291 291 290 289 291 291 291 291 292 293 295
252 245 242 244 243 242 246 248 251 253 251 256 260 259 263 268 271 274 275 278 280 284 286 288 287 285 284 283 283 285 286 286 287 288 288 289 290 291 292 292 292 293 294 295
246 245 243 245 243 245 245 243 248 253 252 254 254 256 266 265 268 275 280 282 282 285 289 289 288 285 285 284 284 284 287 287 286 286 286 287 290 290 292 291 291 294 294 294
246 249 245 245 247 249 250 246 247 249 251 253 254 259 267 274 273 273 278 280 284 288 291 290 287 287 285 285 284 284 284 284 285 286 287 288 289 293 293 292 291 293 295 296
249 249 251 249 246 246 249 246 247 250 251 252 255 257 259 272 276 278 280 280 284 290 291 291 289 288 287 286 284 282 282 282 284 284 286 286 287 290 291 291 292 291 292 295
249 250 251 251 249 246 249 249 246 249 250 253 251 255 258 264 272 278 280 282 286 287 288 290 289 289 288 288 286 282 280 281 282 282 284 285 288 290 292 292 291 290 290 291
245 244 247 246 246 245 247 248 247 251 256 255 256 260 261 260 266 273 279 280 284 287 289 288 289 290 289 287 285 281 280 281 281 281 283 286 288 290 293 292 292 291 290 290
241 241 243 244 244 245 246 244 248 250 250 253 256 259 259 261 266 271 276 278 282 284 285 287 289 289 289 289 285 281 280 281 281 281 283 286 287 290 292 293 293 293 292 290
243 241 244 247 244 250 250 245 244 248 250 253 255 253 257 261 267 271 272 276 279 281 281 283 287 288 286 285 284 281 280 278 280 282 283 286 289 289 291 292 293 293 292 290
245 242 243 246 245 248 252 253 247 247 251 253 256 258 264 264 266 271 272 274 277 278 279 282 286 287 286 283 285 285 285 282 281 282 283 285 286 288 289 290 290 290 290 289
245 245 247 248 244 244 247 248 251 247 251 254 256 258 261 263 266 270 270 273 275 275 276 279 283 286 284 283 285 285 286 285 284 284 284 286 287 287 287 287 288 290 290 290
243 247 250 250 249 247 247 248 248 249 248 251 255 260 263 264 267 267 267 270 272 277 276 277 282 282 280 281 280 283 283 283 285 285 285 288 290 291 290 288 289 291 292 291
244 246 247 249 250 250 250 252 252 252 252 256 260 261 263 265 266 267 269 272 276 276 275 280 280 278 277 278 279 281 281 284 288 289 288 289 292 292 291 289 289 290 292 294
245 244 246 247 250 250 255 255 253 255 253 252 257 262 263 264 266 269 270 271 273 273 275 276 275 276 278 278 278 279 280 282 287 289 289 289 291 290 290 291 290 291 293 292
243 245 246 246 250 250 253 256 255 255 257 255 256 261 264 265 266 269 268 269 269 270 273 275 275 276 276 275 277 279 280 281 283 286 288 287 289 288 287 289 289 291 291 289
240 244 247 250 250 250 251 253 253 256 257 260 262 262 264 266 267 269 268 266 270 270 272 274 275 275 275 276 277 278 279 282 283 285 286 286 286 285 286 288 289 290 290 289
236 240 244 246 248 252 253 253 255 258 260 262 263 263 264 266 267 268 267 266 266 268 270 271 273 273 275 277 278 278 279 280 281 284 286 287 286 285 287 287 289 289 288 288
236 242 245 245 247 251 254 255 256 258 259 261 262 261 264 268 268 267 266 266 265 266 269 271 272 272 274 276 277 278 280 280 280 282 285 286 285 285 285 285 287 289 290 289
237 239 243 248 250 253 255 255 257 259 260 260 261 262 264 266 266 267 267 268 267 268 269 270 270 271 273 275 276 277 279 280 281 281 283 286 287 284 285 286 287 287 288 290
240 242 247 251 252 253 256 256 256 257 258 259 261 263 266 266 264 263 263 265 265 267 270 270 270 272 273 274 275 278 279 280 281 281 283 285 287 287 287 287 286 288 291 289
Height
5835 5837 5838 5840 5842 5844 5845 5847 5848 5849 5850 5849 5849 5849 5849 5848 5848 5848 5848 5848 5848 5847 5846 5846 5846 5846 5846 5845 5845 5843 5842 5841 5840 5840 5839 5838 5838 5837 5836 5835 5834 5833 5832 5831
5831 5833 5836 5837 5839 5841 5842 5843 5845 5846 5846 5847 5847 5846 5846 5845 5845 5845 5844 5844 5844 5844 5843 5843 5843 5843 5842 5842 5841 5840 5839 5838 5837 5837 5836 5835 5834 5833 5832 5831 5830 5829 5828 5827
5828 5832 5833 5834 5835 5837 5839 5840 5842 5843 5843 5844 5845 5844 5843 5843 5842 5842 5842 5841 5841 5841 5840 5839 5839 5840 5839 5838 5837 5837 5836 5835 5834 5833 5832 5831 5830 5830 5829 5828 5826 5825 5824 5823
5825 5828 5829 5830 5832 5834 5835 5837 5838 5839 5840 5840 5841 5840 5840 5840 5839 5839 5839 5838 5838 5837 5837 5835 5834 5835 5835 5834 5834 5833 5832 5831 5830 5829 5828 5827 5827 5826 5825 5824 5823 5821 5820 5819
5821 5824 5825 5827 5829 5830 5831 5834 5835 5835 5836 5836 5836 5837 5837 5835 5835 5835 5835 5835 5834 5834 5833 5832 5831 5831 5831 5831 5830 5829 5828 5828 5827 5826 5825 5824 5823 5822 5821 5820 5819 5818 5817 5815
5818 5820 5821 5823 5825 5826 5828 5830 5830 5831 5832 5831 5832 5832 5833 5832 5832 5832 5831 5831 5831 5831 5830 5829 5828 5827 5827 5826 5826 5825 5825 5824 5823 5822 5821 5820 5819 5818 5817 5816 5815 5814 5813 5812
5815 5817 5818 5819 5821 5823 5824 5825 5827 5827 5827 5827 5829 5829 5830 5829 5829 5829 5828 5828 5827 5826 5826 5825 5824 5823 5823 5822 5822 5821 5820 5820 5819 5818 5817 5816 5815 5814 5813 5812 5811 5809 5808 5807
5812 5814 5815 5816 5817 5819 5820 5822 5824 5824 5824 5825 5826 5826 5825 5823 5825 5824 5823 5824 5824 5823 5822 5821 5820 5819 5818 5818 5817 5817 5816 5815 5815 5814 5813 5812 5811 5810 5809 5808 5807 5805 5804 5803
5808 5810 5812 5812 5813 5815 5816 5817 5819 5820 5820 5821 5822 5822 5820 5819 5821 5820 5819 5819 5820 5819 5818 5817 5816 5815 5814 5813 5813 5812 5812 5811 5810 5810 5809 5808 5807 5806 5805 5804 5803 5801 5800 5799
5804 5806 5807 5808 5810 5811 5813 5814 5815 5815 5816 5816 5817 5817 5817 5816 5815 5816 5815 5816 5815 5815 5814 5813 5811 5810 5810 5809 5808 5808 5807 5807 5806 5806 5805 5804 5803 5802 5801 5800 5799 5798 5796 5795
5800 5801 5803 5803 5804 5806 5808 5810 5810 5811 5811 5812 5812 5814 5812 5811 5811 5811 5811 5811 5811 5810 5809 5808 5807 5806 5806 5805 5804 5803 5803 5802 5802 5802 5801 5800 5799 5798 5797 5796 5795 5794 5792 5791
5795 5796 5796 5798 5801 5803 5804 5805 5807 5807 5807 5807 5807 5810 5807 5807 5807 5808 5807 5807 5807 5806 5805 5804 5802 5802 5801 5801 5800 5800 5799 5799 5798 5797 5797 5796 5795 5794 5793 5792 5790 5789 5788 5787
5789 5790 5792 5794 5797 5798 5799 5800 5802 5802 5802 5802 5802 5804 5802 5803 5802 5803 5802 5802 5802 5801 5801 5800 5798 5798 5797 5796 5796 5795 5795 5794 5794 5793 5793 5792 5791 5790 5789 5788 5786 5785 5783 5782
5783 5784 5787 5789 5791 5792 5793 5795 5796 5797 5797 5797 5798 5796 5796 5798 5798 5798 5798 5798 5797 5797 5796 5795 5794 5793 5793 5791 5791 5791 5791 5790 5789 5789 5788 5788 5787 5786 5785 5783 5782 5780 5779 5778
5776 5779 5780 5782 5785 5786 5786 5788 5789 5790 5790 5791 5790 5790 5790 5791 5792 5792 5793 5793 5793 5793 5792 5791 5790 5789 5788 5787 5786 5787 5786 5786 5785 5785 5784 5783 5782 5781 5780 5779 5777 5776 5775 5773
5770 5773 5775 5776 5778 5779 5780 5781 5782 5783 5784 5785 5784 5784 5784 5785 5786 5787 5788 5788 5788 5788 5787 5786 5785 5785 5784 5783 5782 5782 5782 5781 5781 5780 5779 5779 5778 5776 5775 5774 5773 5771 5770 5768
5764 5766 5768 5770 5772 5772 5774 5775 5776 5777 5778 5779 5778 5779 5779 5779 5781 5782 5782 5783 5783 5782 5782 5781 5781 5780 5779 5779 5778 5777 5777 5777 5776 5775 5774 5773 5772 5771 5770 5768 5767 5766 5765 5763
5758 5760 5761 5763 5765 5765 5768 5769 5770 5770 5772 5772 5772 5773 5774 5774 5775 5776 5776 5776 5777 5776 5776 5775 5775 5775 5775 5775 5774 5773 5772 5771 5771 5770 5769 5768 5767 5766 5764 5763 5762 5761 5760 5758
5751 5753 5755 5756 5757 5758 5760 5762 5764 5765 5765 5765 5766 5767 5767 5768 5769 5770 5771 5771 5771 5771 5770 5770 5770 5770 5770 5769 5769 5768 5767 5766 5766 5765 5764 5763 5762 5760 5759 5758 5757 5756 5754 5753
5744 5746 5748 5749 5750 5751 5755 5756 5758 5759 5758 5760 5760 5761 5762 5763 5764 5765 5764 5765 5765 5765 5765 5765 5765 5764 5764 5764 5763 5762 5761 5761 5761 5760 5758 5757 5756 5755 5754 5753 5751 5750 5749 5747
5738 5740 5741 5742 5743 5745 5748 5750 5751 5752 5753 5754 5754 5755 5756 5757 5758 5758 5758 5759 5759 5759 5759 5759 5759 5758 5758 5758 5758 5757 5756 5755 5755 5754 5752 5751 5750 5749 5748 5747 5746 5744 5743 5741
5732 5734 5735 5736 5737 5740 5741 5743 5744 5744 5746 5746 5748 5749 5750 5751 5752 5752 5751 5752 5753 5753 5754 5753 5753 5752 5752 5752 5752 5751 5750 5749 5748 5747 5746 5745 5744 5743 5742 5741 5740 5738 5737 5735
5725 5727 5728 5730 5732 5731 5733 5734 5735 5737 5738 5739 5741 5742 5743 5744 5745 5745 5745 5746 5746 5747 5747 5747 5747 5747 5746 5746 5745 5745 5744 5743 5743 5742 5740 5739 5738 5737 5736 5735 5733 5732 5730 5729
5717 5719 5721 5723 5724 5724 5725 5727 5729 5730 5732 5733 5734 5735 5736 5737 5738 5739 5739 5740 5740 5740 5741 5741 5741 5741 5740 5740 5739 5738 5738 5737 5736 5735 5734 5733 5732 5731 5730 5728 5727 5726 5724 5723
5711 5713 5714 5715 5717 5718 5719 5721 5722 5723 5724 5725 5726 5727 5728 5730 5731 5731 5732 5733 5733 5734 5734 5734 5734 5734 5734 5733 5733 5732 5731 5730 5729 5728 5727 5726 5725 5724 5723 5722 5720 5719 5718 5717
5703 5706 5707 5709 5710 5711 5712 5713 5715 5716 5717 5718 5719 5720 5721 5722 5723 5724 5725 5725 5726 5727 5727 5727 5727 5727 5727 5727 5726 5726 5725 5724 5723 5722 5720 5719 5718 5717 5716 5715 5714 5712 5711 5710